Great Bend, KS

7:29 PM CST on February 26, 2017 (GMT -0600)
Great Bend Municipal

Weather History for KGBD - August, 2014

Change the Weather History Date:

Monday, August 4, 2014

  Actual Average Record
Temperature  
Mean Temperature 80 °F -  
Max Temperature 95 °F 91 °F 105 °F (1959)
Min Temperature 66 °F 67 °F 50 °F (1974)
Cooling Degree Days 16    
Growing Degree Days 30 (Base 50)    
Moisture  
Dew Point 60 °F    
Average Humidity 54    
Maximum Humidity 78    
Minimum Humidity 28    
Precipitation  
Precipitation 0.00 in - - ()
Sea Level Pressure  
Sea Level Pressure 30.05 in    
Wind  
Wind Speed 10 mph (SSW)    
Max Wind Speed 15 mph    
Max Gust Speed 21 mph    
Visibility 10 miles    
Events      
Averages and records for this station are not official NWS values.
T = Trace of Precipitation, MM = Missing Value Source: NWS Daily Summary

Daily Weather History Graph

Daily Weather History Graph

Search for Another Location

Airport or City:

Trip Planner

Search our weather history database for the weather conditions in past years. The results will help you decide how hot, cold, wet, or windy it might be!

Date:

Astronomy

Aug. 04, 2014 Rise Set
Actual Time 6:40 AM CDT 8:42 PM CDT
Civil Twilight 6:11 AM CDT 9:11 PM CDT
Nautical Twilight 5:35 AM CDT 9:46 PM CDT
Astronomical Twilight 4:57 AM CDT 10:24 PM CDT
Moon 2:56 PM CDT (8/4) 12:47 AM CDT (8/4)
Length of Visible Light 15h 00m
Length of Day
14h 01m
First Quarter, 57% of the Moon is Illuminated
Aug 4
First Quarter
Aug 10
Full
Aug 17
Last Quarter
Aug 25
New
Sep 2
First Quarter

Hourly Weather History & Observations

Time (CDT) Temp. Heat Index Dew Point Humidity Pressure Visibility Wind Dir Wind Speed Gust Speed Precip Events Conditions
12:15 AM 73.4 °F - 62.6 °F 69% 30.07 in 10.0 mi SSW 9.2 mph - N/A   Unknown
12:35 AM 73.4 °F - 62.6 °F 69% 30.07 in 10.0 mi SSW 9.2 mph - N/A   Unknown
12:55 AM 71.6 °F - 62.6 °F 73% 30.07 in 10.0 mi SSW 9.2 mph - N/A   Unknown
1:15 AM 71.6 °F - 62.6 °F 73% 30.07 in 10.0 mi SSW 9.2 mph - N/A   Unknown
1:35 AM 71.6 °F - 60.8 °F 69% 30.06 in 10.0 mi SSW 8.1 mph - N/A   Unknown
1:55 AM 71.6 °F - 60.8 °F 69% 30.06 in 10.0 mi SSW 10.4 mph - N/A   Unknown
2:15 AM 69.8 °F - 60.8 °F 73% 30.06 in 10.0 mi SSW 9.2 mph - N/A   Unknown
2:35 AM 71.6 °F - 60.8 °F 69% 30.05 in 10.0 mi SSW 10.4 mph - N/A   Unknown
2:55 AM 69.8 °F - 60.8 °F 73% 30.05 in 10.0 mi SSW 9.2 mph - N/A   Unknown
3:15 AM 69.8 °F - 60.8 °F 73% 30.05 in 10.0 mi SSW 9.2 mph - N/A   Unknown
3:35 AM 69.8 °F - 60.8 °F 73% 30.05 in 10.0 mi SSW 9.2 mph - N/A   Unknown
3:55 AM 69.8 °F - 60.8 °F 73% 30.05 in 10.0 mi SSW 9.2 mph - N/A   Unknown
4:15 AM 69.8 °F - 60.8 °F 73% 30.05 in 10.0 mi SSW 8.1 mph - N/A   Unknown
4:35 AM 69.8 °F - 60.8 °F 73% 30.05 in 10.0 mi SSW 8.1 mph - N/A   Unknown
4:55 AM 68.0 °F - 60.8 °F 78% 30.05 in 10.0 mi SSW 8.1 mph - N/A   Unknown
5:15 AM 69.8 °F - 60.8 °F 73% 30.05 in 10.0 mi SSW 9.2 mph - N/A   Unknown
5:35 AM 68.0 °F - 59.0 °F 73% 30.05 in 10.0 mi SW 9.2 mph - N/A   Unknown
5:55 AM 68.0 °F - 59.0 °F 73% 30.06 in 10.0 mi SW 9.2 mph - N/A   Unknown
6:15 AM 68.0 °F - 57.2 °F 68% 30.06 in 10.0 mi SW 9.2 mph - N/A   Unknown
6:35 AM 66.2 °F - 57.2 °F 73% 30.06 in 10.0 mi SW 6.9 mph - N/A   Unknown
6:55 AM 66.2 °F - 57.2 °F 73% 30.07 in 10.0 mi SW 6.9 mph - N/A   Unknown
7:15 AM 66.2 °F - 59.0 °F 78% 30.07 in 10.0 mi WSW 5.8 mph - N/A   Unknown
7:35 AM 66.2 °F - 59.0 °F 78% 30.07 in 10.0 mi SW 6.9 mph - N/A   Unknown
7:55 AM 66.2 °F - 59.0 °F 78% 30.08 in 10.0 mi WSW 3.5 mph - N/A   Unknown
8:15 AM 68.0 °F - 60.8 °F 78% 30.09 in 10.0 mi WSW 5.8 mph - N/A   Unknown
8:35 AM 71.6 °F - 60.8 °F 69% 30.09 in 10.0 mi SSW 6.9 mph - N/A   Unknown
8:55 AM 73.4 °F - 60.8 °F 65% 30.10 in 10.0 mi SW 8.1 mph - N/A   Unknown
9:15 AM 73.4 °F - 60.8 °F 65% 30.10 in 10.0 mi WSW 11.5 mph - N/A   Unknown
9:35 AM 75.2 °F - 60.8 °F 61% 30.10 in 10.0 mi WSW 9.2 mph - N/A   Unknown
9:55 AM 75.2 °F - 60.8 °F 61% 30.10 in 10.0 mi WSW 9.2 mph - N/A   Unknown
10:15 AM 77.0 °F - 60.8 °F 57% 30.09 in 10.0 mi SW 10.4 mph - N/A   Unknown
10:35 AM 80.6 °F 81.5 °F 60.8 °F 51% 30.08 in 10.0 mi SW 12.7 mph 17.3 mph N/A   Unknown
10:55 AM 84.2 °F 84.4 °F 60.8 °F 45% 30.08 in 10.0 mi WSW 10.4 mph - N/A   Unknown
11:15 AM 86.0 °F 86.1 °F 60.8 °F 43% 30.08 in 10.0 mi WSW 11.5 mph - N/A   Unknown
11:35 AM 87.8 °F 87.6 °F 60.8 °F 40% 30.08 in 10.0 mi SSW 11.5 mph 18.4 mph N/A   Unknown
11:55 AM 87.8 °F 87.6 °F 60.8 °F 40% 30.08 in 10.0 mi SW 10.4 mph - N/A   Unknown
12:15 PM 87.8 °F 87.6 °F 60.8 °F 40% 30.08 in 10.0 mi SSW 10.4 mph - N/A   Unknown
12:35 PM 89.6 °F 89.5 °F 60.8 °F 38% 30.07 in 10.0 mi SW 9.2 mph - N/A   Unknown
12:55 PM 89.6 °F 88.1 °F 57.2 °F 33% 30.07 in 10.0 mi SW 11.5 mph - N/A   Unknown
1:15 PM 91.4 °F 89.9 °F 57.2 °F 31% 30.06 in 10.0 mi SSW 12.7 mph - N/A   Unknown
1:35 PM 91.4 °F 89.9 °F 57.2 °F 31% 30.06 in 10.0 mi SSW 9.2 mph - N/A   Unknown
1:55 PM 91.4 °F 89.4 °F 55.4 °F 29% 30.06 in 10.0 mi SSW 8.1 mph 16.1 mph N/A   Unknown
2:15 PM 91.4 °F 89.9 °F 57.2 °F 31% 30.05 in 10.0 mi South 11.5 mph 16.1 mph N/A   Unknown
2:35 PM 93.2 °F 91.9 °F 57.2 °F 30% 30.04 in 10.0 mi South 13.8 mph 18.4 mph N/A   Unknown
2:55 PM 93.2 °F 91.3 °F 55.4 °F 28% 30.03 in 10.0 mi SSW 11.5 mph - N/A   Unknown
3:15 PM 93.2 °F 91.9 °F 57.2 °F 30% 30.02 in 10.0 mi South 11.5 mph 19.6 mph N/A   Unknown
3:35 PM 93.2 °F 91.9 °F 57.2 °F 30% 30.02 in 10.0 mi SSW 11.5 mph 19.6 mph N/A   Unknown
3:55 PM 93.2 °F 91.3 °F 55.4 °F 28% 30.01 in 10.0 mi South 15.0 mph 20.7 mph N/A   Unknown
4:15 PM 95.0 °F 93.7 °F 57.2 °F 28% 30.01 in 10.0 mi SSW 13.8 mph 19.6 mph N/A   Unknown
4:35 PM 93.2 °F 91.9 °F 57.2 °F 30% 30.01 in 10.0 mi SSW 12.7 mph 19.6 mph N/A   Unknown
4:55 PM 93.2 °F 92.6 °F 59.0 °F 32% 30.01 in 10.0 mi South 11.5 mph - N/A   Unknown
5:15 PM 93.2 °F 91.9 °F 57.2 °F 30% 30.00 in 10.0 mi South 15.0 mph 18.4 mph N/A   Unknown
5:35 PM 91.4 °F 89.9 °F 57.2 °F 31% 30.00 in 10.0 mi South 13.8 mph - N/A   Unknown
5:55 PM 91.4 °F 89.9 °F 57.2 °F 31% 30.00 in 10.0 mi South 13.8 mph - N/A   Unknown
6:15 PM 91.4 °F 90.7 °F 59.0 °F 34% 30.00 in 10.0 mi South 12.7 mph - N/A   Unknown
6:35 PM 91.4 °F 91.4 °F 60.8 °F 36% 30.00 in 10.0 mi South 12.7 mph - N/A   Unknown
6:55 PM 91.4 °F 91.4 °F 60.8 °F 36% 30.00 in 10.0 mi South 13.8 mph - N/A   Unknown
7:15 PM 89.6 °F 89.5 °F 60.8 °F 38% 30.00 in 10.0 mi South 13.8 mph - N/A   Unknown
7:35 PM 87.8 °F 87.6 °F 60.8 °F 40% 30.00 in 10.0 mi South 13.8 mph - N/A   Unknown
7:55 PM 87.8 °F 87.1 °F 59.0 °F 38% 30.01 in 10.0 mi South 11.5 mph - N/A   Unknown
8:15 PM 84.2 °F 84.4 °F 60.8 °F 45% 30.02 in 10.0 mi South 8.1 mph - N/A   Unknown
8:35 PM 82.4 °F 82.9 °F 60.8 °F 48% 30.02 in 10.0 mi South 6.9 mph - N/A   Unknown
8:55 PM 78.8 °F - 62.6 °F 57% 30.02 in 10.0 mi South 8.1 mph - N/A   Unknown
9:15 PM 77.0 °F - 62.6 °F 61% 30.03 in 10.0 mi South 8.1 mph - N/A   Unknown
9:35 PM 77.0 °F - 62.6 °F 61% 30.03 in 10.0 mi South 8.1 mph - N/A   Unknown
9:55 PM 75.2 °F - 62.6 °F 65% 30.04 in 10.0 mi South 8.1 mph - N/A   Unknown
10:35 PM 73.4 °F - 62.6 °F 69% 30.04 in 10.0 mi South 9.2 mph - N/A   Unknown
10:55 PM 75.2 °F - 62.6 °F 65% 30.05 in 10.0 mi South 9.2 mph - N/A   Unknown
11:15 PM 77.0 °F - 60.8 °F 57% 30.05 in 10.0 mi South 10.4 mph - N/A   Unknown
11:35 PM 75.2 °F - 60.8 °F 61% 30.05 in 10.0 mi South 9.2 mph - N/A   Unknown
11:55 PM 77.0 °F - 60.8 °F 57% 30.05 in 10.0 mi South 9.2 mph - N/A   Unknown